Location: Colle Santa Colomba
(42.0333°N, 12.5667°E)
Time: 03:46:11
(UTC+00:00)

Cosmos 1153 Rocket - Pass Details

Date: 25 October 2021
Orbit: 952 x 1007 km, 82.9° (Epoch: 05 December)

Event Time Altitude Azimuth Distance (km) Brightness Sun altitude
Rises 17:40:26 0° 176° (S) 3,712 7.5 -16.9°
Reaches altitude 10° 17:42:58 10° 173° (S) 2,770 6.8 -17.3°
Maximum altitude 17:49:15 66° 93° (E) 1,098 4.5 -18.5°
Drops below altitude 10° 17:55:36 10° 13° (NNE) 2,791 6.8 -19.7°
Sets 17:58:10 0° 11° (N) 3,742 7.5 -20.1°
